Location: Riddle Hill
(39.7867°N, 89.7645°W)
Time: 20:54:42
(UTC+00:00)

NOSS 3-3 (A) - Pass Details

Date: 29 October 2020
Orbit: 819 x 1393 km, 63.4° (Epoch: 29 November)

Event Time Altitude Azimuth Distance (km) Brightness Sun altitude
Rises 23:22:39 0° 190° (S) 3,350 7.2 -5.0°
Reaches altitude 10° 23:25:07 10° 183° (S) 2,449 6.3 -5.5°
Maximum altitude 23:30:21 41° 114° (ESE) 1,268 4.3 -6.5°
Drops below altitude 10° 23:36:06 10° 47° (NE) 2,709 5.8 -7.6°
Enters shadow 23:38:31 - 41° (NE) 3,582 6.5 -8.0°
